Location: São Paulo
(23.5507°S, 46.6334°W)
Time: 06:55:49
(UTC-03:00)

Vanguard 3 - Pass Details

Date: 18 February 2026
Orbit: 507 x 3205 km, 33.4° (Epoch: 7 March)

Event Time Altitude Azimuth Distance (km) Brightness Sun altitude
Exits shadow 05:24:47 - 265° (W) 4,173 10.2 -7.8°
Reaches altitude 10° 05:25:52 10° 263° (W) 3,900 10.1 -7.6°
Maximum altitude 05:36:53 59° 184° (S) 2,660 9.8 -5.1°
Drops below altitude 10° 05:54:46 10° 107° (ESE) 6,021 13.8 -1.2°
Sets 06:00:00 0° 103° (ESE) 7,147 17.6 0.0°
